Station MISM1 - Matinicus Rock, ME Image indicating link to RSS feed of recent meteorological observations for station MISM1


Conditions at MISM1 as of
(1:00 pm EDT)
1700 GMT on 04/20/2024:
     

Click on the graph icon in the table below to see a time series plot of the last five days of that observation.

5-day plot - Wind Direction Wind Direction (WDIR): S ( 190 deg true )
5-day plot - Wind Speed Wind Speed (WSPD): 15 kts
5-day plot - Wind Gust Wind Gust (GST): 16 kts
5-day plot - Atmospheric Pressure Atmospheric Pressure (PRES):29.87 in
5-day plot - Pressure Tendency Pressure Tendency (PTDY):-0.06 in ( Falling )
5-day plot - Air Temperature Air Temperature (ATMP): 43.5 °F
5-day plot - Wind Chill Wind Chill (CHILL): 35.8 °F
5-day plot - Wind Speed at 10 Meters Wind Speed at 10 meters (WSPD10M): 16 kts
5-day plot - Wind Speed at 20 Meters Wind Speed at 20 meters (WSPD20M): 16 kts
5-day plot -  Wind Speed, Wind Gust and Atmospheric Pressure Combined plot of Wind Speed, Gust, and Air Pressure
Continuous Winds
TIME
(EDT)
5-day plot - Wind Direction WDIR 5-day plot - Wind Speed WSPD
1:00 pmSSW ( 192 deg ) 15 kts
12:50 pmSSW ( 201 deg ) 17 kts
12:40 pmSSW ( 212 deg ) 16 kts
12:30 pmSSW ( 209 deg ) 16 kts
12:20 pmSSW ( 210 deg ) 17 kts
12:10 pmSSW ( 202 deg ) 16 kts
 
Peak gust during the measurement hour
TIME
(EDT)
5-day plot - Gust Direction GDR 5-day plot - Gust Speed GST
12:20 pmSSW ( 210 deg ) 19 kts
Previous observations
TIME
(EDT)
5-day plot - Wind Direction
WDIR
 
5-day plot - Wind Speed
WSPD
kts
5-day plot - Wind Gust
GST
kts
5-day plot - Wave Height
WVHT
ft
5-day plot - Dominant Wave Period
DPD
sec
5-day plot - Average Wave Period
APD
sec
5-day plot - Mean Wave Direction
MWD
 
5-day plot - Atmospheric Pressure
PRES
in
5-day plot - Pressure Tendency
PTDY
in
5-day plot - Air Temperature
ATMP
°F
5-day plot - Water Temperature
WTMP
°F
5-day plot - Dew Point
DEWP
°F
5-day plot - Salinity
SAL
psu
5-day plot - Visibility
VIS
nmi
5-day plot - Tide (above MLLW)
TIDE
ft
2024-04-20 12:00 pm S 17 19----29.88-0.06 43.5-----
2024-04-20 11:00 amSSW 15 17----29.91-0.04 43.5-----
2024-04-20 10:00 amSSW 18 19----29.93-0.02 43.5-----
2024-04-20 09:00 amSSW 18 20----29.94-0.01 43.3-----
2024-04-20 08:00 amSSW 17 18----29.95-0.03 43.2-----
2024-04-20 07:00 am S 18 19----29.96-0.03 43.5-----
2024-04-20 06:00 am S 21 22----29.96-0.05 43.7-----
2024-04-20 05:00 am S 20 22----29.97-0.06 43.7-----
2024-04-20 04:00 am S 18 19----29.99-0.06 43.5-----
2024-04-20 03:00 am S 17 18----30.01-0.04 43.7-----
2024-04-20 02:00 am S 16 18----30.03-0.05 43.7-----
2024-04-20 01:00 am S 16 18----30.04-0.05 43.9-----
2024-04-20 12:00 am S 19 21----30.05-0.05 43.9-----
2024-04-19 11:00 pmSSW 18 20----30.08-0.02 44.1-----
2024-04-19 10:00 pm S 16 17----30.09+0.00 43.9-----
2024-04-19 09:00 pm S 15 16----30.10-0.02 43.7-----
2024-04-19 08:00 pm S 14 15----30.09-0.03 43.3-----
2024-04-19 07:00 pm S 15 16----30.09-0.05 43.3-----
2024-04-19 06:00 pm S 13 14----30.12-0.04 43.3-----
2024-04-19 05:00 pmSSE 14 15----30.12-0.04 43.5-----
2024-04-19 04:00 pmSSE 14 15----30.14-0.05 43.9-----
2024-04-19 03:00 pm S 12 13----30.16-0.05 44.2-----
2024-04-19 02:00 pm SE 13 14----30.16-0.07 44.6-----
2024-04-19 01:00 pmSSE 7 7----30.19-0.04 44.6-----